Volver al catálogo

TIANQI 16

ActivoComunicacionesLEO
NORAD 64058·PAYLOAD·🇨🇳 China

Lanzado May 19, 2025 desde Yellow Sea Launch Area

Loading…

Próximos Pases (próximas 24 horas)

TLE

ActualizadoSource: Space-Track

Época: Sep 14, 2026, 16:00 UTC

1 64058U 25105A   26257.66735324  .00000074  00000-0  13897-3 0  9996
2 64058  44.9858 344.2541 0009561  85.7864 274.4061 13.99177825 67723

Sigue TIANQI 16 en tiempo real con AllMySat

Download on the App Store